Location: Wanzleben
(52.0609°N, 11.4408°E)
Time: 11:10:25
(UTC+00:00)

Cosmos 2266 Rocket - Pass Details

Date: 18 September 2020
Orbit: 934 x 1008 km, 82.9° (Epoch: 25 October)

Event Time Altitude Azimuth Distance (km) Brightness Sun altitude
Rises 20:57:13 0° 348° (NNW) 3,621 7.9 -29.8°
Reaches altitude 10° 20:59:43 10° 348° (NNW) 2,666 7.0 -30.1°
Enters shadow 21:05:32 76° 293° (WNW) 967 3.9 -30.6°
